Milas, Turkey

7:38 PM +03 on September 25, 2017 (GMT +0300)
Bodrum

Weather History for LTFE - October, 2013

Change the Weather History Date:

Thursday, October 3, 2013

  Actual Average Record
Temperature  
Mean Temperature 64 °F -  
Max Temperature 73 °F - - ()
Min Temperature 55 °F - - ()
Degree Days  
Heating Degree Days 1    
Growing Degree Days 14 (Base 50)    
Moisture  
Dew Point 44 °F    
Average Humidity 50    
Maximum Humidity 77    
Minimum Humidity 25    
Precipitation  
Precipitation 0.00 in - - ()
Sea Level Pressure  
Sea Level Pressure 29.97 in    
Wind  
Wind Speed 7 mph ()    
Max Wind Speed 18 mph    
Max Gust Speed 23 mph    
Visibility 6.2 miles    
Events      
T = Trace of Precipitation, MM = Missing Value Source: Averaged Metar Reports

Daily Weather History Graph

Daily Weather History Graph

Search for Another Location

Airport or City:

Trip Planner

Search our weather history database for the weather conditions in past years. The results will help you decide how hot, cold, wet, or windy it might be!

Date:

Astronomy

Oct. 03, 2013 Rise Set
Actual Time 7:06 AM EEST 6:49 PM EEST
Civil Twilight 6:40 AM EEST 7:15 PM EEST
Nautical Twilight 6:10 AM EEST 7:45 PM EEST
Astronomical Twilight 5:39 AM EEST 8:16 PM EEST
Moon 5:21 AM EEST (10/3) 5:46 PM EEST (10/3)
Length of Visible Light 12h 35m
Length of Day
11h 43m
Waning Crescent, 3% of the Moon is Illuminated
Oct 3
Waning Crescent
Oct 5
New
Oct 12
First Quarter
Oct 19
Full
Oct 27
Last Quarter

Hourly Weather History & Observations

Time (EEST) Temp. Dew Point Humidity Pressure Visibility Wind Dir Wind Speed Gust Speed Precip Events Conditions
12:20 AM 62.6 °F 55.4 °F 77% 29.83 in - South 3.5 mph - N/A   Clear
12:50 AM 64.4 °F 53.6 °F 68% 29.83 in - Variable 3.5 mph - N/A   Clear
1:20 AM 62.6 °F 55.4 °F 77% 29.86 in - SW 3.5 mph - N/A   Clear
1:50 AM 60.8 °F 53.6 °F 77% 29.86 in - South 5.8 mph - N/A   Clear
2:20 AM 62.6 °F 50.0 °F 63% 29.86 in - Variable 3.5 mph - N/A   Clear
2:50 AM 62.6 °F 50.0 °F 63% 29.86 in - NE 12.7 mph - N/A   Clear
3:20 AM 60.8 °F 48.2 °F 63% 29.86 in - Variable 2.3 mph - N/A   Clear
3:50 AM 60.8 °F 48.2 °F 63% 29.86 in - East 3.5 mph - N/A   Clear
4:20 AM 59.0 °F 50.0 °F 72% 29.86 in - Variable 3.5 mph - N/A   Clear
4:50 AM 59.0 °F 48.2 °F 67% 29.89 in - ENE 4.6 mph - N/A   Clear
5:20 AM 59.0 °F 48.2 °F 67% 29.89 in - East 4.6 mph - N/A   Clear
5:50 AM 55.4 °F 48.2 °F 77% 29.89 in - East 4.6 mph - N/A   Clear
6:20 AM 57.2 °F 48.2 °F 72% 29.89 in - ESE 4.6 mph - N/A   Clear
6:50 AM 57.2 °F 48.2 °F 72% 29.89 in - Variable 5.8 mph - N/A   Clear
7:20 AM 59.0 °F 48.2 °F 67% 29.92 in - Variable 3.5 mph - N/A   Clear
7:50 AM 59.0 °F 50.0 °F 72% 29.92 in - South 4.6 mph - N/A   Clear
8:20 AM 60.8 °F 48.2 °F 63% 29.95 in - NNW 3.5 mph - N/A   Clear
8:50 AM 62.6 °F 48.2 °F 59% 29.95 in - NNE 5.8 mph - N/A   Clear
9:20 AM 64.4 °F 48.2 °F 56% 29.95 in 6.2 mi NE 6.9 mph - N/A   Scattered Clouds
9:50 AM 64.4 °F 48.2 °F 56% 29.95 in 6.2 mi North 11.5 mph - N/A   Scattered Clouds
10:20 AM 66.2 °F 48.2 °F 52% 29.98 in 6.2 mi North 13.8 mph - N/A   Scattered Clouds
10:50 AM 68.0 °F 48.2 °F 49% 29.98 in 6.2 mi North 10.4 mph - N/A   Partly Cloudy
11:20 AM 68.0 °F 48.2 °F 49% 29.98 in 6.2 mi North 8.1 mph - N/A   Partly Cloudy
11:50 AM 69.8 °F 46.4 °F 43% 29.98 in 6.2 mi NNE 8.1 mph - N/A   Partly Cloudy
12:20 PM 71.6 °F 46.4 °F 41% 29.98 in 6.2 mi NE 10.4 mph - N/A   Partly Cloudy
12:50 PM 71.6 °F 46.4 °F 41% 29.98 in 6.2 mi NNE 11.5 mph - N/A   Partly Cloudy
1:20 PM 73.4 °F 48.2 °F 41% 29.98 in 6.2 mi NW 8.1 mph - N/A   Partly Cloudy
1:50 PM 73.4 °F 42.8 °F 33% 29.98 in 6.2 mi North 11.5 mph - N/A   Partly Cloudy
2:20 PM 73.4 °F 41.0 °F 31% 29.98 in 6.2 mi NNW 15.0 mph - N/A   Partly Cloudy
2:50 PM 73.4 °F 37.4 °F 27% 29.98 in 6.2 mi NNW 16.1 mph - N/A   Partly Cloudy
3:20 PM 73.4 °F 37.4 °F 27% 29.98 in 6.2 mi North 13.8 mph - N/A   Partly Cloudy
3:50 PM 73.4 °F 35.6 °F 25% 29.98 in 6.2 mi North 17.3 mph - N/A   Partly Cloudy
4:20 PM 71.6 °F 33.8 °F 25% 30.01 in 6.2 mi North 17.3 mph - N/A   Partly Cloudy
4:50 PM 71.6 °F 35.6 °F 27% 30.01 in 6.2 mi North 17.3 mph - N/A   Partly Cloudy
5:20 PM 69.8 °F 33.8 °F 27% 30.01 in 6.2 mi North 18.4 mph - N/A   Partly Cloudy
5:50 PM 69.8 °F 37.4 °F 31% 30.01 in 6.2 mi North 16.1 mph - N/A   Partly Cloudy
6:20 PM 68.0 °F 37.4 °F 33% 30.04 in 6.2 mi NW 9.2 mph 23.0 mph N/A   Partly Cloudy
6:50 PM 66.2 °F 35.6 °F 32% 30.04 in 6.2 mi WNW 5.8 mph - N/A   Partly Cloudy
7:20 PM 64.4 °F 39.2 °F 40% 30.04 in 6.2 mi NW 10.4 mph - N/A   Partly Cloudy
7:50 PM 62.6 °F 41.0 °F 45% 30.06 in 6.2 mi NNW 15.0 mph - N/A   Partly Cloudy
8:20 PM 60.8 °F 41.0 °F 48% 30.09 in 6.2 mi NNW 13.8 mph - N/A   Partly Cloudy
8:50 PM 60.8 °F 37.4 °F 42% 30.09 in - NNW 17.3 mph - N/A   Clear
9:20 PM 59.0 °F 39.2 °F 48% 30.09 in - NNW 12.7 mph - N/A   Clear
9:50 PM 59.0 °F 33.8 °F 39% 30.12 in - NW 11.5 mph - N/A   Clear
10:20 PM 59.0 °F 33.8 °F 39% 30.12 in - NNW 13.8 mph - N/A   Clear
10:50 PM 59.0 °F 32.0 °F 36% 30.12 in - NNE 13.8 mph - N/A   Clear
11:20 PM 57.2 °F 35.6 °F 44% 30.12 in - NNE 10.4 mph - N/A   Clear
11:50 PM 57.2 °F 35.6 °F 44% 30.15 in - North 8.1 mph - N/A   Clear